{"data":{"norad_id":62393,"epoch":"2026-05-24T23:03:50.143392Z","epoch_age_seconds":74504,"freshness":"FRESH","line1":"1 62393U 24247S   26144.96099703  .00342224  00000+0  15880-2 0  9992","line2":"2 62393  44.9627 356.8328 0016795 251.3127 108.5953 15.81560483 80146","mean_motion":15.81560483,"eccentricity":0.0016795,"inclination_deg":44.9627,"raan_deg":356.8328,"arg_perigee_deg":251.3127,"mean_anomaly_deg":108.5953,"bstar":0.001588,"rev_number":8014,"period_min":91.049315880005,"perigee_km":314.76748394746,"apogee_km":337.28677125206,"semimajor_km":6704.1641275998,"source":"CELESTRAK","updated_at":"2026-05-25T13:38:02.948332Z"}}